User: anonymous   Login
Location: Unspecified
(0.0000°N, 0.0000°E)
Time: 14:09:42
(UTC+00:00)
Language:

UHF F/O F4 - Orbit

View from above orbital plane
View from above orbital plane
View from above satellite
View from above satellite

Ground track
Ground track

The orbit data is extracted from the following two-line orbital elements,

1 23467U 95003A   18252.62098232 0.00000000  00000-0  00000-0 0    02
2 23467   9.9579  24.5700 0008168  53.1061 306.8467  1.00270000    04
Epoch (UTC): 09 September 2018 14:54:12
Eccentricity: 0.0008168
inclination: 9.9579°
perigee height: 35752 km
apogee height: 35821 km
right ascension of ascending node: 24.5700°
argument of perigee: 53.1061°
revolutions per day: 1.00270000
mean anomaly at epoch: 306.8467°
orbit number at epoch: 0

The dashed part of the orbit path shows where the satellite is in the earth's shadow,  

DLR